Simultaneous Nadir Overpasses (SNOs) Predictions

Prediction of SNOs between METOP-B and TERRA Satellite Orbit:

Table of predicted SNOs for the next 14.0 days since TLE Epoch: 5/9/2015
Index Date (METOP-B) Time (METOP-B) Lat,Lon (METOP-B) SZA (METOP-B ) Date (TERRA) Time (TERRA) Lat,Lon (TERRA) SZA (TERRA ) Distance(km) Time Diff (sec)
1 05/09/2015 17:04:32 81.30, -29.08 66.87 05/09/2015 17:05:34 81.30, -29.09 66.90 0.19 62
2 05/09/2015 17:55:12 -81.30, 138.66 113.09 05/09/2015 17:55:00 -81.31, 138.83 113.07 2.95 12
3 05/12/2015 12:38:53 81.30, 37.33 66.15 05/12/2015 12:39:52 81.30, 37.42 66.19 1.59 59
4 05/12/2015 13:29:33 -81.30,-154.93 113.81 05/12/2015 13:29:19 -81.30,-155.02 113.83 1.74 14
5 05/15/2015 08:13:13 81.30, 103.67 65.46 05/15/2015 08:14:09 81.30, 103.73 65.49 1.03 56
6 05/1
